Tracking 25723 objects as of 27-Jun-2022
HD Live streaming from Space Station
objects crossing your sky now

SL-14 R/B

Track SL-14 R/B now!
10-day predictions
SL-14 R/B is classified as:


NORAD ID: 21423
Int'l Code: 1991-042B
Perigee: 624.3 km
Apogee: 649.0 km
Inclination: 82.5 °
Period: 97.3 minutes
Semi major axis: 7007 km
RCS: 4.7234 m2 (large)
Launch date: June 13, 1991
Source: Commonwealth of Independent States (former USSR) (CIS)
Launch site: PLESETSK MISSILE AND SPACE COMPLEX (PKMTR)

Note: This is a ROCKET BODY
aabbcc
Your satellite tracking list
Your tracking list is empty




NASA's NSSDC Master Catalog

Two Line Element Set (TLE):
1 21423U 91042B   22177.57777079  .00000203  00000-0  23734-4 0  9994
2 21423  82.4940  46.0558 0017612   2.9018 357.2294 14.79951138652975
Source of the keplerian elements: AFSPC